Main page
METAR-TAF:

METAR-TAF

Airports :

Oil platform

D15-fa-1, Netherlands

latitude: 54-19-32N, longitude: 2-56-09E, elevation: 36 m

Current weather observation

The report was made 26 minutes ago, at 00:25 UTC
Wind 40 kt from the East/Southeast
Temperature 6°C
Humidity 87%
Pressure 1010 hPa

METAR: EHDV 210025Z AUTO 11040KT //// // FEW012/// SCT015/// BKN020/// 06/04 Q1010 RE// W///H///

Time: 01:51 (00:51 UTC)


TAF: missing

Weather observations and forecasts of more than 4000 airports (METAR and TAF reports).

The available stations are represented by yellow and red dots on the map.

Hover mouse over dot to see the name of the station.

Then click to see weather observations and forecasts.

To change the map : click on the green buttons with a black cross to zoom in, on the green button with a dash to zoom out, or on the green arrows for adjacent maps.


METAR-TAF: